Weather History for KMVL - March, 2013

Change the Weather History Date:

Thursday, March 14, 2013

  Actual Average Record
Temperature  
Mean Temperature 23 °F 28 °F  
Max Temperature 30 °F 39 °F 57 °F (2007)
Min Temperature 15 °F 17 °F -11 °F (2014)
Degree Days  
Heating Degree Days 42 37  
Month to date heating degree days 461 555  
Since 1 July heating degree days 5993 6515  
Cooling Degree Days 0 0  
Month to date cooling degree days 0 0  
Year to date cooling degree days 0 0  
Moisture  
Dew Point 15 °F    
Average Humidity 73    
Maximum Humidity 92    
Minimum Humidity 54    
Precipitation  
Precipitation T in 0.05 in 0.35 in (1997)
Month to date precipitation 0.82 0.62  
Year to date precipitation 3.53 4.90  
Sea Level Pressure  
Sea Level Pressure 29.80 in    
Wind  
Wind Speed 8 mph (WNW)    
Max Wind Speed 20 mph    
Max Gust Speed 26 mph    
Visibility 8 miles    
Events Snow    
T = Trace of Precipitation, MM = Missing Value Source: NWS Daily Summary

Daily Weather History Graph

Daily Weather History Graph

Search for Another Location

Airport or City:

Trip Planner

Search our weather history database for the weather conditions in past years. The results will help you decide how hot, cold, wet, or windy it might be!

Date:

Astronomy

Mar. 14, 2013 Rise Set
Actual Time 7:04 AM EDT 6:55 PM EDT
Civil Twilight 6:35 AM EDT 7:24 PM EDT
Nautical Twilight 6:01 AM EDT 7:58 PM EDT
Astronomical Twilight 5:27 AM EDT 8:32 PM EDT
Moon 8:08 AM EDT (3/14) 10:18 PM EDT (3/14)
Length of Visible Light 12h 49m
Length of Day
11h 51m
Waxing Crescent, 9% of the Moon is Illuminated
Mar 14
Waxing Crescent
Mar 19
First Quarter
Mar 27
Full
Apr 3
Last Quarter
Apr 10
New

Hourly Weather History & Observations

Time (EDT) Temp. Windchill Dew Point Humidity Pressure Visibility Wind Dir Wind Speed Gust Speed Precip Events Conditions
12:54 AM 28.0 °F - 26.1 °F 92% 29.76 in 8.0 mi Calm Calm - N/A   Overcast
1:18 AM 28.4 °F 24.6 °F 26.6 °F 93% 29.73 in 2.5 mi Variable 3.5 mph - 0.00 in Snow Light Snow
1:25 AM 30.2 °F 26.7 °F 26.6 °F 86% 29.73 in 3.0 mi SSW 3.5 mph - 0.00 in Snow Light Snow
1:54 AM 30.0 °F 25.2 °F 25.0 °F 82% 29.75 in 10.0 mi SSW 4.6 mph - 0.00 in   Overcast
2:54 AM 30.0 °F - 25.0 °F 82% 29.75 in 10.0 mi Calm Calm - 0.00 in   Overcast
3:54 AM 28.9 °F 22.8 °F 19.9 °F 69% 29.73 in 10.0 mi SSW 5.8 mph - N/A   Overcast
4:54 AM 28.0 °F - 18.0 °F 66% 29.73 in 10.0 mi Calm Calm - N/A   Scattered Clouds
5:54 AM 28.0 °F 21.7 °F 21.9 °F 78% 29.74 in 3.0 mi SSW 5.8 mph - 0.00 in Snow Light Snow
6:32 AM 26.6 °F 19.1 °F 23.0 °F 86% 29.71 in 1.8 mi SSW 6.9 mph - 0.00 in Snow Light Snow
6:34 AM 26.6 °F 18.2 °F 23.0 °F 86% 29.71 in 2.0 mi SSW 8.1 mph - 0.00 in Snow Light Snow
6:54 AM 27.0 °F 20.5 °F 21.0 °F 78% 29.75 in 5.0 mi Variable 5.8 mph - 0.00 in Snow Light Snow
7:09 AM 26.6 °F 21.2 °F 19.4 °F 74% 29.72 in 9.0 mi SSW 4.6 mph - 0.00 in   Overcast
7:54 AM 27.0 °F 19.5 °F 19.9 °F 75% 29.75 in 10.0 mi SSW 6.9 mph - 0.00 in   Overcast
8:54 AM 27.0 °F 18.7 °F 16.0 °F 63% 29.77 in 10.0 mi SW 8.1 mph - N/A   Overcast
9:54 AM 25.0 °F 20.7 °F 18.0 °F 75% 29.79 in 10.0 mi Variable 3.5 mph - N/A   Overcast
10:54 AM 25.0 °F 13.6 °F 16.0 °F 69% 29.78 in 10.0 mi NNE 12.7 mph 18.4 mph N/A   Overcast
11:54 AM 25.0 °F 15.5 °F 15.1 °F 66% 29.79 in 10.0 mi North 9.2 mph - N/A   Overcast
12:54 PM 26.1 °F 16.2 °F 14.0 °F 60% 29.79 in 10.0 mi North 10.4 mph - N/A   Overcast
1:54 PM 23.0 °F 11.1 °F 10.9 °F 60% 29.79 in 10.0 mi NNW 12.7 mph 19.6 mph N/A   Overcast
2:54 PM 21.0 °F 8.6 °F 8.1 °F 57% 29.81 in 10.0 mi NNW 12.7 mph 24.2 mph N/A   Overcast
3:54 PM 19.9 °F 6.7 °F 8.1 °F 60% 29.83 in 9.0 mi NNW 13.8 mph 21.9 mph N/A   Overcast
4:54 PM 19.0 °F 6.8 °F 6.1 °F 57% 29.86 in 10.0 mi NNW 11.5 mph 16.1 mph N/A   Overcast
5:54 PM 18.0 °F 6.9 °F 3.9 °F 54% 29.87 in 10.0 mi NW 9.2 mph 20.7 mph N/A   Overcast
6:54 PM 17.1 °F 8.7 °F 8.1 °F 68% 29.90 in 4.0 mi Variable 5.8 mph - 0.00 in Snow Light Snow
7:04 PM 17.6 °F 5.0 °F 8.6 °F 68% 29.86 in 3.0 mi NNW 11.5 mph 16.1 mph 0.00 in Snow Light Snow
7:19 PM 17.6 °F 5.7 °F 6.8 °F 63% 29.86 in 6.0 mi NW 10.4 mph - 0.00 in Snow Light Snow
7:54 PM 17.1 °F 7.6 °F 7.0 °F 65% 29.90 in 4.0 mi NNW 6.9 mph - 0.00 in Snow Light Snow
8:54 PM 16.0 °F 6.3 °F 3.0 °F 57% 29.91 in 10.0 mi NW 6.9 mph 19.6 mph 0.00 in   Overcast
9:54 PM 16.0 °F 5.3 °F 3.0 °F 57% 29.92 in 10.0 mi WNW 8.1 mph - N/A   Overcast
10:54 PM 16.0 °F 5.3 °F 3.9 °F 59% 29.91 in 10.0 mi WNW 8.1 mph 18.4 mph N/A   Overcast
11:54 PM 16.0 °F 5.3 °F 3.0 °F 57% 29.92 in 10.0 mi WNW 8.1 mph - N/A   Scattered Clouds